Home > Weather > Langkawi > Past weeks

Flag for Malaysia Past Weather in Langkawi, Malaysia — Yesterday and Last 2 Weeks

Now
88 °F

Partly sunny.


Feels Like: 102 °F
Forecast: 80 / 90 °F
Wind: 5 mph from West

Location: Langkawi

Current Time: May 31, 2016 at 7:58:28 PM

Latest Report: May 31, 2016 at 7:00 PM


Visibility: N/A

Pressure: 29.80 "Hg

Humidity: 75%

Dew Point: 79 °F

Location of LangkawiLocation

Past Weather in Langkawi — Graph

°F

Langkawi Temperature Yesterday

Maximum temperature yesterday: 84 °F (at 12:00 AM)
Minimum temperature yesterday: 77 °F (at 4:00 AM)
Average temperature yesterday: 81 °F

High & Low Weather Summary for the Past Weeks

 TemperatureHumidityPressure
High93 °F (May 18, 1:00 PM)94% (May 17, 4:00 AM)29.89 "Hg (May 17, 4:00 AM)
Low75 °F (May 26, 12:00 AM)66% (May 19, 6:00 PM)29.68 "Hg (May 16, 6:00 PM)
Average83 °F84%29.80 "Hg
* Reported May 16 6:00 PM — May 31 6:00 PM, Langkawi, Weather by CustomWeather, © 2016

Note: Actual official high and low records may vary slightly from our data, if they occured in-between our weather recording intervals... More about our weather records

Advertising

Langkawi Weather History for the Previous 24 Hours

Scroll right to see more
 ConditionsComfort  
Time TempWeatherWind HumidityBarometerVisibility
6:00 PM
Tue, May 31
88 °FPartly sunny.3 mph75%29.77 "HgN/A
5:00 PM88 °FPartly sunny.6 mph75%29.77 "HgN/A
4:00 PM88 °FPartly sunny.5 mph75%29.77 "HgN/A
3:00 PM90 °FPartly sunny.3 mph71%29.80 "HgN/A
2:00 PM88 °FPartly sunny.5 mph75%29.80 "HgN/A
1:00 PM88 °FPartly sunny.5 mph70%29.83 "HgN/A
12:00 PM88 °FPartly sunny.5 mph70%29.83 "HgN/A
11:00 AM88 °FPartly sunny.1 mph75%29.83 "HgN/A
10:00 AM84 °FBroken clouds.1 mph79%29.86 "HgN/A
9:00 AM82 °FBroken clouds.2 mph84%29.86 "HgN/A
8:00 AM79 °FPartly sunny.1 mph89%29.83 "HgN/A
7:00 AM77 °FLight rain. Partly cloudy.1 mph94%29.83 "HgN/A
6:00 AM77 °FLight rain. Partly cloudy.No wind94%29.80 "HgN/A
5:00 AM77 °FPartly cloudy.1 mph94%29.83 "HgN/A
4:00 AM77 °FLight rain. Partly cloudy.1 mph94%29.83 "HgN/A
3:00 AM77 °FLight rain. Partly cloudy.1 mph94%29.80 "HgN/A
2:00 AM77 °FRain. Partly cloudy.1 mph94%29.83 "HgN/A
1:00 AM79 °FPassing clouds.2 mph89%29.83 "HgN/A
12:00 AM79 °FPassing clouds.3 mph89%29.83 "HgN/A
11:00 PM
Mon, May 30
79 °FPassing clouds.No wind89%29.83 "HgN/A
10:00 PM79 °FPartly cloudy.No wind94%29.83 "HgN/A
9:00 PM81 °FPartly cloudy.1 mph84%29.80 "HgN/A
8:00 PM82 °FPartly cloudy.1 mph79%29.77 "HgN/A
7:00 PM82 °FBroken clouds.1 mph79%29.77 "HgN/A
Weather by CustomWeather, © 2016

See weather overviewHow to use our weather pages